THY9FD LTAJ-LTFM

Flight info

Callsign THY9FD
Flight time N/A
Altitude 36000
Route POGEN UL605 REMPO UA17 RATSI UL605 BELSU UA17 YUCEL UL605 YAVRU UL615 ERSEN
Aircraft A321/M-SDE3FGHIRWY/LB1

Departure

Time 2026-04-26 19:54
Airport Gaziantep Oğuzeli International Airport (LTAJ)

Arrival

Time N/A
Airport İstanbul Airport (LTFM)
Time Latitude Longitude Altitude Speed Heading
2026-04-26 19:33 36.94493 37.47755 2225 ft 0 kts 193°
2026-04-26 19:44 36.94497 37.47756 2225 ft 3 kts 194°
2026-04-26 19:44 36.94522 37.47767 2225 ft 4 kts 209°
2026-04-26 19:44 36.94544 37.47786 2223 ft 4 kts 226°
2026-04-26 19:45 36.94560 37.47812 2222 ft 4 kts 245°
2026-04-26 19:45 36.94567 37.47844 2221 ft 4 kts 272°
2026-04-26 19:45 36.94566 37.47861 2224 ft 0 kts 288°
2026-04-26 19:48 36.94567 37.47857 2225 ft 2 kts 288°
2026-04-26 19:48 36.94576 37.47820 2222 ft 7 kts 287°
2026-04-26 19:48 36.94615 37.47793 2225 ft 8 kts
2026-04-26 19:48 36.94645 37.47841 2222 ft 8 kts 93°
2026-04-26 19:49 36.94629 37.47918 2225 ft 10 kts 105°
2026-04-26 19:49 36.94610 37.48005 2222 ft 11 kts 105°
2026-04-26 19:49 36.94596 37.48072 2222 ft 8 kts 105°
2026-04-26 19:49 36.94580 37.48148 2224 ft 10 kts 105°
2026-04-26 19:50 36.94559 37.48241 2223 ft 12 kts 105°
2026-04-26 19:50 36.94537 37.48345 2226 ft 13 kts 105°
2026-04-26 19:50 36.94512 37.48460 2221 ft 14 kts 105°
2026-04-26 19:50 36.94484 37.48586 2224 ft 16 kts 105°
2026-04-26 19:51 36.94455 37.48724 2222 ft 17 kts 105°
2026-04-26 19:51 36.94423 37.48872 2222 ft 18 kts 104°
2026-04-26 19:51 36.94391 37.49030 2224 ft 19 kts 104°
2026-04-26 19:51 36.94358 37.49177 2224 ft 14 kts 105°
2026-04-26 19:52 36.94332 37.49295 2224 ft 13 kts 105°
2026-04-26 19:52 36.94331 37.49388 2224 ft 9 kts 57°
2026-04-26 19:52 36.94381 37.49418 2223 ft 8 kts 17°
2026-04-26 19:52 36.94437 37.49436 2225 ft 9 kts
2026-04-26 19:53 36.94481 37.49384 2223 ft 10 kts 291°
2026-04-26 19:53 36.94501 37.49293 2224 ft 14 kts 285°
2026-04-26 19:53 36.94581 37.48922 2220 ft 80 kts 285°
2026-04-26 19:53 36.94781 37.48000 2225 ft 140 kts 285°
2026-04-26 19:54 36.95077 37.46629 2316 ft 179 kts 284°
2026-04-26 19:54 36.95371 37.45117 2972 ft 178 kts 283°
2026-04-26 19:54 36.95642 37.43625 3700 ft 173 kts 283°
2026-04-26 19:54 36.95910 37.42129 4140 ft 182 kts 283°
2026-04-26 19:55 36.96205 37.40518 4439 ft 197 kts 283°
2026-04-26 19:55 36.96521 37.38796 4843 ft 208 kts 283°
2026-04-26 19:55 36.96869 37.36956 5044 ft 229 kts 283°
2026-04-26 19:55 36.97257 37.34900 5158 ft 256 kts 283°
2026-04-26 19:56 36.97676 37.32677 5720 ft 267 kts 283°
2026-04-26 19:56 36.98100 37.30395 6427 ft 271 kts 283°
2026-04-26 19:56 36.98517 37.28083 7187 ft 274 kts 282°
2026-04-26 19:56 36.98937 37.25744 7922 ft 277 kts 282°
2026-04-26 19:57 36.99363 37.23384 8666 ft 279 kts 282°
2026-04-26 19:57 36.99795 37.21002 9400 ft 282 kts 282°
2026-04-26 19:57 37.00475 37.18690 10123 ft 286 kts 297°
2026-04-26 19:57 37.01644 37.16638 10647 ft 300 kts 311°
2026-04-26 19:58 37.03192 37.14742 10824 ft 323 kts 314°
2026-04-26 19:58 37.04843 37.12757 10965 ft 344 kts 314°
2026-04-26 19:58 37.06616 37.10619 11164 ft 362 kts 314°
2026-04-26 19:58 37.08448 37.08405 11678 ft 369 kts 314°
2026-04-26 19:59 37.10305 37.06164 12323 ft 372 kts 314°
2026-04-26 19:59 37.12244 37.03990 12963 ft 377 kts 321°
2026-04-26 19:59 37.14381 37.02056 13586 ft 381 kts 322°
2026-04-26 19:59 37.16541 37.00109 14200 ft 384 kts 322°
2026-04-26 20:00 37.18721 36.98142 14811 ft 388 kts 322°
2026-04-26 20:00 37.20919 36.96153 15414 ft 391 kts 322°
2026-04-26 20:00 37.23133 36.94145 16007 ft 394 kts 322°
2026-04-26 20:00 37.25365 36.92116 16578 ft 398 kts 322°
2026-04-26 20:01 37.27617 36.90068 17158 ft 401 kts 322°
2026-04-26 20:01 37.29890 36.88000 17703 ft 405 kts 322°
2026-04-26 20:01 37.32182 36.85916 18239 ft 408 kts 322°
2026-04-26 20:01 37.34492 36.83813 18756 ft 412 kts 322°
2026-04-26 20:02 37.36818 36.81693 19264 ft 415 kts 322°
2026-04-26 20:02 37.39162 36.79554 19736 ft 418 kts 322°
2026-04-26 20:02 37.41522 36.77396 20213 ft 421 kts 322°
2026-04-26 20:02 37.43096 36.75957 20524 ft 423 kts 322°
2026-04-26 20:03 37.46294 36.73030 21133 ft 427 kts 322°
2026-04-26 20:03 37.48701 36.70826 21561 ft 430 kts 322°